Find Satcom K2

NORAD ID: 16276 Int'l Des: 1985-109 Owner: AMC Country: US operational
HEOCIRCULAR

Current View

Loading 3D Globe...

About Satcom K2

Satcom K2 (NORAD 16276) is a satellite launched Nov 27, 1985 by AMC of US. It operates in HEO, CIRCULAR orbit with a mass of 966.00 kg.

Upcoming Passes

Passes for default location (London). Set your location on the main map for personalized predictions.

Altitude History

Loading altitude history...

Two-Line Element Set

1 16276U 85109D 26195.10124034 .00000055 00000-0 00000+0 0 9992
2 16276 14.7059 352.1855 0009453 269.2293 275.5570 0.99609925125865
Epoch: Jul 14, 2026 • Age: 9 hours

Current Status

Altitude 35948.2 km
Apogee / Perigee N/A
Velocity 3.07 km/s
Sub-Earth Point -9.68°S, 151.31°W
Launch Date Nov 27, 1985
Age 40.6 years
Type other

Technical Details

Classification Payload
Mass 966.00 kg
Dry Mass 850.00 kg
Total Mass 1925.00 kg
Length 2.10 m
Diameter 1.50 m
Span 20.00 m
Shape Box + 2 Pan
Manufacturer RCA
Bus Type AS4000
Phase Status In Orbit
Owner/State AMC/US

Most Searched